Location: Ar Ranvel
(48.3000°N, 4.8833°W)
Time: 20:45:21
(UTC+00:00)

X-37B - Visible Passes

Search period start: 21 September 2021 00:00
Search period end: 01 October 2021 00:00
Orbit: 381 x 393 km, 45.0° (Epoch: 29 August)

Date Brightness Start Highest point End Pass type
(mag) Time Alt. Az. Time Alt. Az. Time Alt. Az.
22 Sep 3.0 04:55:27 10° SSW 04:57:31 16° SSE 04:59:36 10° ESE visible
23 Sep 3.4 03:59:30 10° SE 03:59:30 10° SE 04:00:05 10° SE visible
23 Sep 2.0 05:32:32 10° SW 05:35:23 31° SSE 05:38:16 10° E visible
24 Sep 2.3 04:36:10 20° S 04:37:10 23° SSE 04:39:46 10° ESE visible
25 Sep 3.5 03:40:29 13° ESE 03:40:29 13° ESE 03:41:04 10° ESE visible
25 Sep 1.5 05:12:46 14° WSW 05:15:08 39° S 05:18:08 10° E visible
26 Sep 1.8 04:17:04 31° SSE 04:17:04 31° SSE 04:19:44 10° E visible
27 Sep 1.2 04:53:37 28° SW 04:54:54 45° S 04:57:57 10° ESE visible
28 Sep 2.5 03:57:54 25° ESE 03:57:54 25° ESE 03:59:36 10° E visible
28 Sep 1.3 05:30:11 12° W 05:32:59 41° S 05:35:59 10° ESE visible
29 Sep 1.0 04:34:29 45° SSW 04:34:40 45° S 04:37:43 10° ESE visible
30 Sep 3.5 03:38:49 14° ESE 03:38:49 14° ESE 03:39:24 10° ESE visible
30 Sep 1.5 05:11:07 20° WSW 05:12:43 34° SSW 05:15:37 10° SE visible
